Back to catalog

THORAD DELTA 1 DEB

LostSSO
NORAD 42600·DEBRIS·🇺🇸 United States

Launched Nov 15, 1974 from Vandenberg Space Force Base

Loading…

Next Passes (next 24 hours)

TLE

StaleSource: Space-Track

Epoch: Aug 22, 2016, 07:05 UTC

1 42600U 74089FR  16235.29564104  .00000089  00000-0  85552-3 0  9993
2 42600 101.5654 263.1755 0052625 320.3049  37.9026 12.51445564455756

Track THORAD DELTA 1 DEB in real time with AllMySat

Download on the App Store